Vertical_Velocity
6 0 1 1 -1 -2 1 3 0 2 -1 -3 -2 -3 -5 -1 -1 -0 2 1 -1 -1 -1 -1 -1 1 1 3 1 -1 -1 -3 2 -2 -3 -4 -3 -3 -4 -1 -0 1 2
2 4 3 0 -2 0 2 3 1 -3 -2 -2 -0 -1 1 -2 -0 1 1 0 0 2 1 3 2 3 -1 -0 1 1 -2 -1 0 2 0 -11 -9 -8 1 -7 -1 2 1
-6 -6 1 3 -0 -1 1 2 1 2 1 1 -1 -1 0 -1 -0 1 1 -0 1 -0 -2 -1 -0 1 0 -2 1 1 2 -1 -3 1 6 2 -1 0 -6 -7 -5 -4 -2
4 -2 -0 -1 4 1 2 1 1 0 0 0 1 1 1 0 1 0 0 -0 0 0 1 1 0 1 1 -2 2 2 1 1 -3 -1 0 2 7 2 -4 -3 -6 -4 2
0 -2 -6 -2 2 0 1 1 2 2 1 1 1 1 0 0 -0 0 1 1 0 1 2 2 2 2 1 0 1 -0 1 1 1 1 -1 -2 -2 2 4 -1 -8 -5 -3
-6 -0 -1 0 3 1 -1 -1 -0 -0 -0 -1 -0 -0 0 1 1 1 1 1 0 1 0 -0 0 0 0 -1 1 2 1 2 1 -0 1 2 3 -2 2 1 -2 -2 -4
2 5 -2 -7 -5 0 -0 -1 -0 -0 -0 -1 -1 -2 -2 -2 -1 0 1 0 0 -0 -1 -1 -0 -0 -1 -1 -0 1 3 3 3 3 -1 -2 -1 2 3 5 -1 3 -2
-1 1 3 5 1 -0 -0 1 0 0 -1 -1 -1 -1 -2 -2 -2 -1 -0 -0 -0 1 -1 -1 -1 -1 -0 -0 1 2 -0 -2 -2 4 2 4 1 3 4 3 2 -2 -3
1 2 6 2 5 5 3 3 -1 -1 -1 -1 -1 -0 -0 -1 -1 -1 -2 -2 -1 -2 -2 -1 -1 -0 -0 0 -1 -1 -1 -2 -1 1 1 2 -0 1 3 2 2 3 1
-1 2 3 4 4 2 1 0 -1 -1 -0 -0 -2 -1 0 -1 -2 -2 -2 -2 -2 -2 -1 -1 -1 -1 -0 0 -1 1 0 2 1 -0 -0 -1 -1 1 -0 -1 -0 0 -0
1 -1 3 4 2 1 0 0 1 1 1 0 1 -0 -1 -1 0 -0 0 -1 0 -0 1 1 -0 -0 1 0 1 1 1 1 2 1 1 0 0 -0 -1 -2 -2 -3 0
2 1 -1 -1 -0 1 -2 -1 -1 1 -0 -1 -0 -0 0 -1 0 0 0 -1 1 1 -1 -0 0 -1 1 -0 -0 0 -0 -1 -2 -1 -2 -3 -2 -4 -2 -3 -1 2 2
2 1 -2 -2 0 0 0 -0 -1 -2 -2 1 -0 -1 1 -1 -0 -1 1 -0 -1 -2 -2 -0 -1 -1 -0 0 0 1 -0 -1 -0 -1 -1 -1 -0 -2 0 1 -1 -0 -1
1 -0 -0 0 0 -2 -1 -0 1 1 -2 -3 0 1 0 2 1 -2 -1 -3 1 -2 0 -1 -1 1 -2 -1 0 1 2 -0 -0 -1 -1 -3 0 -0 -1 -3 1 -0 1
-5 -2 -3 -2 -1 -1 0 2 -1 -3 1 -1 -2 -2 -0 0 1 -1 -1 -1 -1 -2 1 -1 1 -1 4 -0 -0 -3 -2 2 -0 1 -0 1 -1 -0 1 -3 -2 2 -2
2 0 1 -1 -3 -3 -0 -3 -1 -2 2 -1 2 -3 1 0 -0 2 -0 -2 0 -1 -3 -0 2 -1 3 0 -1 -1 0 -2 -1 1 0 -0 -1 1 1 -4 -2 1 -1
0 -5 -2 -2 -1 -2 3 -1 1 -3 1 -0 0 -0 -2 -0 0 1 1 0 -2 -1 -1 -2 2 0 -1 1 0 1 1 -1 -1 0 0 1 -0 -1 -5 -1 -1 -2 -3
-3 -3 -0 1 -0 2 1 0 -0 -1 2 0 1 -0 -1 1 2 -1 1 1 -2 -1 -0 1 -1 0 1 0 1 0 -1 -1 1 -1 2 -1 -1 -2 -4 2 -1 -2 -2
-0 -3 4 1 -0 -1 1 0 0 2 1 -0 -0 0 -0 -2 -2 0 1 1 -1 -2 0 1 1 2 -0 1 -1 -2 -1 -0 2 3 -4 4 -6 0 0 0 -2 -2 -1
3 2 -1 0 -0 -0 0 1 0 -1 -2 -2 0 -0 -1 -1 1 1 -2 -1 0 2 1 1 1 -1 0 1 0 -1 -1 0 -1 3 0 -3 0 1 0 -0 -2 -1 -2
3 1 -1 2 3 2 1 0 0 -1 3 -0 0 -1 -1 -1 1 -0 0 -0 0 1 0 0 1 1 2 -1 0 -3 2 -1 1 1 -2 -1 0 -0 1 -2 -2 -1 -2
1 1 1 0 -1 -0 -1 -0 -1 2 -1 -1 -0 -1 -0 -1 -0 0 -0 -2 0 -2 0 -0 0 1 1 -0 0 1 2 -1 1 -0 -0 0 -0 -0 -1 -1 -1 -2 -1
1 0 2 0 0 -0 -1 -2 0 -1 0 0 0 -1 0 1 1 -1 -1 -0 1 -1 0 2 2 1 -0 -1 0 -1 -0 -1 -1 0 2 1 0 -1 -1 -1 -1 -1 0
0 0 0 -1 -1 -1 -1 0 -3 -0 0 0 0 -0 0 -1 -0 0 0 -0 -1 0 1 -1 -1 1 2 1 0 1 -1 -0 1 1 1 -1 -1 -1 -1 -1 -1 -0 1
-0 0 1 2 -2 1 1 -1 -1 -1 1 1 0 0 1 -0 -0 0 1 0 1 1 -0 1 2 1 1 -1 -1 -1 1 2 0 0 0 -1 -2 -1 -0 0 1 1 -1
1 0 1 -0 0 1 -0 0 -1 -0 1 2 1 -1 1 0 0 0 0 -1 -1 -3 -1 2 1 1 0 -0 1 2 0 0 0 1 0 -1 -1 0 0 0 -0 -1 -1
Height
1529 1531 1532 1534 1535 1538 1540 1542 1544 1547 1550 1553 1555 1557 1559 1561 1562 1563 1565 1566 1566 1567 1567 1568 1568 1569 1569 1569 1569 1569 1568 1568 1568 1566 1565 1564 1564 1564 1564 1564 1563 1562 1561
1525 1528 1530 1531 1533 1535 1538 1539 1541 1544 1547 1550 1552 1554 1555 1556 1558 1558 1560 1561 1561 1562 1563 1563 1563 1563 1564 1564 1564 1563 1563 1562 1563 1561 1560 1558 1559 1558 1559 1559 1558 1558 1557
1521 1525 1527 1528 1530 1532 1535 1536 1539 1541 1543 1545 1547 1549 1550 1551 1553 1554 1555 1556 1556 1556 1557 1557 1557 1557 1557 1557 1558 1557 1557 1556 1557 1557 1556 1554 1552 1552 1554 1554 1554 1554 1554
1516 1521 1523 1524 1526 1528 1530 1533 1535 1537 1539 1541 1543 1545 1546 1547 1548 1548 1549 1550 1550 1550 1551 1551 1551 1551 1551 1551 1551 1552 1551 1551 1551 1551 1550 1549 1549 1548 1548 1548 1550 1550 1550
1510 1516 1519 1521 1522 1524 1527 1529 1531 1533 1535 1537 1539 1540 1541 1542 1542 1543 1543 1543 1544 1544 1544 1545 1545 1544 1544 1545 1545 1545 1546 1546 1546 1546 1545 1545 1545 1545 1545 1542 1544 1546 1546
1506 1510 1513 1515 1518 1519 1523 1526 1529 1531 1532 1534 1535 1536 1537 1537 1537 1537 1537 1537 1538 1538 1538 1539 1539 1538 1538 1539 1539 1540 1540 1541 1540 1541 1540 1541 1541 1540 1540 1539 1539 1539 1540
1499 1501 1504 1509 1514 1515 1518 1522 1525 1527 1528 1530 1531 1531 1532 1532 1533 1533 1533 1533 1533 1533 1533 1533 1533 1533 1533 1533 1533 1534 1535 1535 1535 1536 1536 1536 1536 1536 1535 1534 1534 1533 1532
1493 1494 1498 1502 1507 1510 1514 1517 1520 1523 1525 1526 1527 1527 1528 1528 1529 1530 1530 1530 1530 1529 1529 1529 1529 1529 1529 1528 1529 1529 1530 1531 1531 1530 1531 1531 1531 1531 1530 1530 1529 1528 1528
1489 1490 1493 1498 1502 1505 1510 1513 1517 1520 1521 1522 1523 1524 1524 1524 1524 1525 1525 1525 1525 1525 1525 1524 1524 1524 1524 1524 1524 1525 1525 1526 1526 1526 1526 1526 1525 1525 1525 1524 1524 1525 1524
1483 1485 1490 1495 1499 1505 1509 1511 1514 1517 1518 1518 1519 1521 1520 1520 1520 1520 1520 1520 1520 1520 1519 1519 1518 1518 1519 1519 1519 1519 1520 1520 1520 1520 1520 1520 1520 1520 1520 1520 1521 1521 1522
1479 1483 1490 1494 1499 1504 1507 1510 1512 1514 1515 1515 1516 1516 1516 1517 1517 1516 1515 1515 1515 1515 1515 1513 1513 1513 1513 1513 1514 1514 1514 1515 1515 1515 1515 1516 1515 1515 1515 1516 1517 1518 1518
1479 1484 1490 1494 1499 1502 1505 1507 1509 1511 1512 1512 1513 1512 1512 1512 1513 1513 1512 1512 1512 1511 1511 1509 1508 1508 1509 1508 1509 1509 1509 1510 1511 1511 1511 1513 1513 1513 1513 1513 1514 1515 1514
1481 1483 1488 1492 1496 1500 1503 1505 1507 1508 1510 1510 1509 1509 1509 1509 1509 1509 1509 1508 1508 1507 1506 1505 1505 1504 1504 1505 1505 1505 1505 1506 1507 1508 1509 1510 1510 1511 1511 1511 1511 1511 1510
1480 1483 1486 1490 1493 1497 1500 1503 1504 1504 1505 1506 1506 1506 1507 1506 1505 1505 1505 1505 1504 1504 1504 1503 1502 1501 1501 1502 1503 1502 1503 1502 1504 1505 1506 1508 1508 1509 1508 1509 1510 1508 1507
1480 1481 1483 1486 1491 1493 1496 1498 1499 1501 1502 1502 1502 1504 1503 1504 1502 1500 1501 1499 1499 1500 1501 1501 1501 1501 1499 1498 1500 1502 1502 1502 1503 1504 1505 1506 1507 1507 1507 1506 1508 1506 1505
1472 1475 1478 1482 1485 1489 1491 1494 1496 1498 1499 1499 1498 1498 1501 1500 1500 1497 1496 1496 1496 1497 1499 1499 1500 1500 1498 1498 1499 1501 1502 1503 1504 1504 1505 1505 1505 1505 1505 1505 1505 1503 1502
1465 1470 1474 1477 1481 1485 1488 1489 1492 1494 1494 1494 1494 1493 1496 1497 1496 1495 1494 1493 1494 1495 1497 1498 1499 1499 1499 1500 1500 1501 1502 1503 1503 1504 1504 1503 1503 1503 1502 1503 1500 1500 1500
1460 1465 1470 1473 1477 1481 1483 1485 1486 1488 1489 1489 1490 1490 1492 1493 1492 1492 1492 1491 1492 1495 1496 1497 1499 1499 1500 1501 1500 1501 1501 1502 1502 1502 1502 1502 1503 1501 1501 1500 1499 1498 1499
1455 1460 1465 1469 1473 1475 1478 1479 1481 1483 1484 1485 1486 1488 1488 1489 1488 1489 1488 1489 1491 1494 1496 1497 1498 1499 1500 1500 1499 1500 1500 1501 1501 1500 1501 1500 1501 1499 1499 1498 1497 1497 1498
1451 1457 1461 1465 1468 1470 1473 1475 1476 1478 1480 1481 1483 1483 1483 1484 1484 1485 1486 1488 1491 1493 1495 1497 1497 1498 1498 1498 1498 1498 1499 1500 1500 1499 1499 1499 1499 1498 1497 1496 1496 1497 1497
1448 1452 1457 1460 1464 1466 1468 1470 1472 1474 1476 1477 1478 1478 1479 1480 1481 1482 1484 1486 1489 1491 1494 1495 1496 1497 1497 1497 1497 1498 1498 1497 1499 1498 1498 1498 1498 1497 1496 1495 1496 1496 1496
1446 1450 1454 1458 1461 1463 1465 1467 1468 1471 1472 1473 1474 1475 1476 1477 1478 1479 1482 1485 1488 1490 1492 1493 1495 1495 1495 1495 1496 1497 1497 1497 1498 1497 1497 1497 1496 1495 1495 1494 1494 1495 1494
1447 1450 1453 1455 1458 1460 1461 1463 1465 1467 1468 1469 1470 1471 1472 1473 1475 1477 1479 1482 1485 1488 1490 1491 1493 1493 1493 1494 1495 1495 1496 1496 1496 1496 1495 1495 1494 1493 1493 1493 1493 1493 1493
1447 1449 1452 1454 1456 1457 1459 1460 1461 1464 1465 1466 1467 1467 1468 1470 1472 1474 1478 1480 1483 1485 1487 1489 1490 1491 1491 1491 1492 1493 1493 1493 1494 1493 1493 1492 1491 1491 1491 1491 1491 1490 1490
1447 1449 1451 1452 1453 1454 1455 1456 1458 1460 1461 1461 1462 1464 1465 1467 1469 1472 1475 1478 1481 1483 1485 1486 1487 1487 1488 1489 1490 1490 1490 1491 1490 1490 1490 1489 1489 1488 1488 1488 1487 1486 1486
1445 1446 1448 1449 1450 1451 1452 1453 1454 1456 1457 1457 1457 1459 1461 1463 1466 1470 1472 1475 1477 1479 1480 1482 1483 1483 1484 1485 1486 1487 1487 1487 1487 1486 1486 1486 1486 1485 1484 1484 1483 1482 1481